Location: *
(50.2903°S, 172.5375°W)
Time: 21:21:48
(UTC+00:00)

Resurs 1-4 Rocket - Visible Passes

Search period start: 21 February 2020 00:00
Search period end: 02 March 2020 00:00
Orbit: 800 x 813 km, 98.6° (Epoch: 21 February)

Date Brightness Start Highest point End Pass type
(mag) Time Alt. Az. Time Alt. Az. Time Alt. Az.
21 Feb 3.1 11:12:03 35° ESE 11:12:31 36° ESE 11:17:22 10° S visible
21 Feb 2.9 12:53:08 38° WSW 12:53:08 38° WSW 12:57:22 10° SSW visible
22 Feb 3.7 10:47:15 24° ESE 10:48:09 25° ESE 10:52:25 10° S visible
22 Feb 2.5 12:28:21 57° WSW 12:28:21 57° WSW 12:32:55 10° SSW visible
23 Feb 4.1 10:22:28 16° ESE 10:23:52 17° SE 10:27:14 10° SSE visible
23 Feb 2.3 12:03:33 71° S 12:03:33 71° S 12:08:20 10° SSW visible
23 Feb 4.0 13:44:38 16° WSW 13:44:38 16° WSW 13:46:51 10° SW visible
24 Feb 4.5 09:57:50 10° ESE 09:59:40 12° SE 10:01:31 10° SSE visible
24 Feb 2.6 11:38:45 54° SE 11:38:45 54° SE 11:43:38 10° S visible
24 Feb 3.6 13:19:50 24° WSW 13:19:50 24° WSW 13:23:00 10° SW visible
25 Feb 3.2 11:13:57 37° ESE 11:13:57 37° ESE 11:18:49 10° S visible
25 Feb 3.2 12:55:02 34° WSW 12:55:02 34° WSW 12:58:46 10° SSW visible
26 Feb 3.7 10:49:10 25° ESE 10:49:34 25° ESE 10:53:52 10° S visible
26 Feb 2.7 12:30:15 49° SW 12:30:15 49° SW 12:34:20 10° SSW visible
27 Feb 4.1 10:24:22 17° ESE 10:25:17 18° SE 10:28:42 10° SSE visible
27 Feb 2.6 12:05:27 59° S 12:05:27 59° S 12:09:46 10° SSW visible
27 Feb 4.2 13:46:32 14° WSW 13:46:32 14° WSW 13:48:12 10° SW visible
28 Feb 4.5 09:59:34 11° ESE 10:01:05 12° SE 10:03:03 10° SSE visible
28 Feb 2.8 11:40:39 51° SSE 11:40:39 51° SSE 11:45:05 10° S visible
28 Feb 3.8 13:21:45 21° WSW 13:21:45 21° WSW 13:24:24 10° SW visible
29 Feb 3.2 11:15:52 37° SE 11:15:52 37° SE 11:20:16 10° S visible
29 Feb 3.4 12:56:57 30° WSW 12:56:57 30° WSW 13:00:11 10° SSW visible
01 Mar 3.7 10:51:04 26° ESE 10:51:04 26° ESE 10:55:20 10° S visible
01 Mar 3.1 12:32:09 41° SW 12:32:09 41° SW 12:35:46 10° SSW visible
